{"data":{"norad_id":67335,"epoch":"2026-09-19T05:07:32.855808Z","epoch_age_seconds":186549,"freshness":"STALE","line1":"1 67335U 26003B   26262.21357472  .00014622  00000+0  53961-3 0  9995","line2":"2 67335  42.9987 213.9077 0001413 268.3970  91.6719 15.27592519 38424","mean_motion":15.27592519,"eccentricity":0.0001413,"inclination_deg":42.9987,"raan_deg":213.9077,"arg_perigee_deg":268.397,"mean_anomaly_deg":91.6719,"bstar":0.00053961,"rev_number":3842,"period_min":94.265976174239,"perigee_km":482.0421296074,"apogee_km":483.98109020455,"semimajor_km":6861.148609906,"source":"CELESTRAK","updated_at":"2026-09-20T09:00:43.510476Z"}}